CW3224 Weather Reports


Display with metric or nautical units.
time (UTC)temp
F
wind
direction
speed
MPH
gust
MPH
rain 1hr
in
rain 24hr
in
rain mn
in
humidity
%
barometer
mb
20260506175351 70 211 6.0 19.0 0.00 0.00 0.00 65 1006.5
20260506174348 71 301 7.0 19.0 0.00 0.00 0.00 63 1006.5
20260506173347 72 208 7.0 16.0 0.00 0.00 0.00 61 1006.5
20260506172345 72 301 5.0 17.0 0.00 0.00 0.00 60 1006.5
20260506171346 72 126 4.0 12.0 0.00 0.00 0.00 61 1006.5
20260506170346 72 199 5.0 11.0 0.00 0.00 0.00 62 1006.5
20260506165344 72 208 4.0 11.0 0.00 0.00 0.00 63 1006.7
20260506164344 71 301 5.0 15.0 0.00 0.00 0.00 64 1007.0
20260506163343 70 233 6.0 12.0 0.00 0.00 0.00 64 1007.0
20260506162341 70 218 6.0 15.0 0.00 0.00 0.00 64 1007.2
20260506161342 70 226 7.0 14.0 0.00 0.00 0.00 65 1007.5
20260506160341 70 232 5.0 17.0 0.00 0.00 0.00 66 1007.5
20260506155816 69 190 5.0 12.0 0.00 0.00 0.00 67 1007.7
20260506154341 69 219 5.0 15.0 0.00 0.00 0.00 68 1008.0
20260506153342 69 301 5.0 14.0 0.00 0.00 0.00 69 1008.0
20260506153316 69 301 4.0 13.0 0.00 0.00 0.00 70 1008.2
20260506151339 68 301 6.0 13.0 0.00 0.00 0.00 69 1008.4
20260506150339 68 301 5.0 13.0 0.00 0.00 0.00 70 1008.4
20260506145818 68 301 5.0 13.0 0.00 0.00 0.00 70 1008.6
20260506144339 68 148 5.0 13.0 0.00 0.00 0.00 70 1008.5
20260506143340 68 301 5.0 12.0 0.00 0.00 0.00 69 1008.5
20260506142341 68 220 5.0 13.0 0.00 0.00 0.00 71 1008.2
20260506141326 68 195 6.0 16.0 0.00 0.00 0.00 71 1008.1
20260506140325 68 230 6.0 16.0 0.00 0.00 0.00 73 1008.1
20260506135325 67 301 5.0 16.0 0.00 0.00 0.00 73 1008.2
20260506134326 67 301 5.0 14.0 0.00 0.00 0.00 74 1008.5
20260506133326 66 247 5.0 13.0 0.00 0.00 0.00 74 1008.5
20260506132327 65 218 7.0 15.0 0.00 0.00 0.00 76 1008.7
20260506131325 65 143 5.0 13.0 0.00 0.00 0.00 76 1008.9
20260506130326 64 245 5.0 13.0 0.00 0.00 0.00 76 1008.9
20260506125324 64 231 6.0 14.0 0.00 0.00 0.00 77 1008.8
20260506124323 64 183 7.0 16.0 0.00 0.00 0.00 77 1008.6
20260506123324 63 301 6.0 14.0 0.00 0.00 0.00 78 1008.6
20260506122322 62 301 5.0 11.0 0.00 0.00 0.00 79 1008.7
20260506121321 62 301 5.0 14.0 0.00 0.00 0.00 79 1008.8
20260506120321 62 219 6.0 15.0 0.00 0.00 0.00 79 1008.8
20260506115322 61 301 5.0 13.0 0.00 0.00 0.00 81 1009.2
20260506114322 61 194 4.0 10.0 0.00 0.00 0.00 81 1009.2
20260506113314 60 211 4.0 11.0 0.00 0.00 0.00 81 1009.2
20260506112756 60 183 4.0 10.0 0.00 0.00 0.00 81 1009.4
20260506111315 60 198 4.0 10.0 0.00 0.00 0.00 81 1009.2
20260506110746 60 202 4.0 10.0 0.00 0.00 0.00 82 1009.2
20260506105316 59 209 4.0 13.0 0.00 0.00 0.00 83 1009.2
20260506104801 59 187 4.0 10.0 0.00 0.00 0.00 83 1009.2
20260506103315 58 198 4.0 7.0 0.00 0.00 0.00 83 1009.2
20260506102313 58 196 4.0 9.0 0.00 0.00 0.00 82 1009.1
20260506101313 59 180 3.0 8.0 0.00 0.00 0.00 81 1009.2
20260506100314 59 199 3.0 11.0 0.00 0.00 0.00 81 1009.2
20260506095310 59 191 3.0 8.0 0.00 0.00 0.00 80 1009.2
20260506094312 59 213 4.0 9.0 0.00 0.00 0.00 80 1008.8
20260506093311 59 222 4.0 10.0 0.00 0.00 0.00 80 1008.8
20260506092802 60 195 4.0 11.0 0.00 0.00 0.00 79 1009.1
20260506091754 60 198 4.0 11.0 0.00 0.00 0.00 79 1009.1
20260506090310 60 170 4.0 7.0 0.00 0.00 0.00 78 1009.1
20260506085305 60 225 5.0 11.0 0.00 0.00 0.00 78 1009.1
20260506084303 60 199 4.0 9.0 0.00 0.00 0.00 78 1009.1
20260506083742 60 208 5.0 17.0 0.00 0.00 0.00 77 1009.1
20260506082304 61 211 4.0 11.0 0.00 0.00 0.00 77 1009.1
20260506081301 61 212 5.0 17.0 0.00 0.00 0.00 77 1009.0
20260506080301 61 230 4.0 9.0 0.00 0.00 0.00 76 1009.0
20260506073301 62 139 4.0 10.0 0.00 0.00 0.00 75 1009.1
20260506072305 62 204 5.0 11.0 0.00 0.00 0.00 74 1008.9
20260506071301 62 153 5.0 14.0 0.00 0.00 0.00 73 1008.7
20260506070259 62 242 4.0 12.0 0.00 0.00 0.00 73 1008.7
20260506062244 63 188 6.0 14.0 0.00 0.00 0.00 70 1008.6
20260506061245 63 219 6.0 15.0 0.00 0.00 0.00 70 1008.4
20260506060245 63 202 5.0 12.0 0.00 0.00 0.00 69 1008.4
20260506051238 63 189 6.0 15.0 0.00 0.00 0.00 68 1008.8
20260506050238 63 169 5.0 12.0 0.00 0.00 0.00 68 1008.8
20260506050151 63 201 4.0 10.0 0.00 0.00 0.00 69 1008.8
20260506044234 63 170 5.0 14.0 0.00 0.00 0.00 68 1009.0
20260506043232 63 222 4.0 12.0 0.00 0.00 0.00 68 1009.0
20260506042233 63 212 4.0 9.0 0.00 0.00 0.00 68 1009.0
20260506041233 63 197 5.0 14.0 0.00 0.00 0.00 67 1009.0
20260506040231 63 200 4.0 12.0 0.00 0.00 0.00 67 1009.0
20260506035229 63 243 5.0 13.0 0.00 0.00 0.00 66 1008.9
20260506034229 63 196 4.0 11.0 0.00 0.00 0.00 66 1009.0
20260506033713 64 207 4.0 13.0 0.00 0.00 0.00 65 1009.0
20260506032231 64 200 5.0 12.0 0.00 0.00 0.00 65 1008.9
20260506031225 64 239 5.0 10.0 0.00 0.00 0.00 64 1008.9
20260506030225 65 216 5.0 12.0 0.00 0.00 0.00 64 1008.9
20260506030139 65 240 6.0 15.0 0.00 0.00 0.00 63 1009.1
20260506025200 65 170 4.0 12.0 0.00 0.00 0.00 63 1009.0
20260506023708 65 238 4.0 9.0 0.00 0.00 0.00 62 1009.0
20260506022221 66 191 4.0 10.0 0.00 0.00 0.00 62 1009.0
20260506021221 67 192 4.0 8.0 0.00 0.00 0.00 61 1009.0
20260506020222 67 182 5.0 12.0 0.00 0.00 0.00 60 1009.0
20260506015222 67 211 4.0 9.0 0.00 0.00 0.00 60 1008.7
20260506014219 68 195 4.0 10.0 0.00 0.00 0.00 58 1008.7
20260506013221 68 215 5.0 12.0 0.00 0.00 0.00 58 1008.7
20260506012219 69 194 4.0 14.0 0.00 0.00 0.00 57 1008.7
20260506011656 69 220 4.0 11.0 0.00 0.00 0.00 56 1008.1
20260506010219 69 216 6.0 13.0 0.00 0.00 0.00 56 1008.1
20260506005707 69 301 6.0 14.0 0.00 0.00 0.00 55 1008.0
20260506004220 70 301 6.0 13.0 0.00 0.00 0.00 55 1007.6
20260506003211 70 174 6.0 14.0 0.00 0.00 0.00 54 1007.6
20260506002209 70 217 4.0 7.0 0.00 0.00 0.00 54 1007.1
20260506001209 71 158 5.0 11.0 0.00 0.00 0.00 53 1007.1
20260506000211 71 202 5.0 13.0 0.00 0.00 0.00 52 1007.1
20260505235209 72 301 5.0 12.0 0.00 0.00 0.00 52 1006.8
20260505234211 72 206 6.0 19.0 0.00 0.00 0.00 51 1006.5
20260505233204 73 212 6.0 12.0 0.00 0.00 0.00 51 1006.5
20260505232204 73 187 5.0 16.0 0.00 0.00 0.00 51 1006.3
20260505231203 74 187 5.0 11.0 0.00 0.00 0.00 50 1006.1
20260505230203 75 223 5.0 13.0 0.00 0.00 0.00 49 1006.1
20260505230121 75 193 6.0 21.0 0.00 0.00 0.00 48 1006.0
20260505224204 76 203 9.0 23.0 0.00 0.00 0.00 46 1005.5
20260505223152 76 224 8.0 15.0 0.00 0.00 0.00 45 1005.5
20260505222153 77 240 7.0 22.0 0.00 0.00 0.00 45 1005.1
20260505221153 78 181 8.0 16.0 0.00 0.00 0.00 44 1004.9
20260505220153 78 216 8.0 21.0 0.00 0.00 0.00 43 1004.9
20260505215153 78 237 7.0 20.0 0.00 0.00 0.00 43 1005.0
20260505214153 79 198 9.0 28.0 0.00 0.00 0.00 41 1005.0
20260505213153 79 208 9.0 22.0 0.00 0.00 0.00 39 1005.0
20260505212151 80 203 9.0 24.0 0.00 0.00 0.00 39 1004.8
20260505211629 80 198 8.0 18.0 0.00 0.00 0.00 37 1004.5
20260505210148 81 193 8.0 20.0 0.00 0.00 0.00 37 1004.5
20260505205144 81 164 7.0 20.0 0.00 0.00 0.00 37 1004.5
20260505204145 81 198 9.0 22.0 0.00 0.00 0.00 36 1004.5
20260505203634 82 222 7.0 23.0 0.00 0.00 0.00 35 1004.5
20260505202146 82 272 5.0 11.0 0.00 0.00 0.00 37 1004.5
20260505201620 82 264 6.0 15.0 0.00 0.00 0.00 36 1004.8
20260505200623 82 214 7.0 17.0 0.00 0.00 0.00 37 1004.8
20260505195141 82 220 7.0 18.0 0.00 0.00 0.00 36 1004.6
20260505194140 82 204 8.0 24.0 0.00 0.00 0.00 37 1004.6
20260505193142 82 191 8.0 17.0 0.00 0.00 0.00 39 1004.6
20260505192140 82 207 7.0 19.0 0.00 0.00 0.00 40 1005.0
20260505191142 82 229 8.0 20.0 0.00 0.00 0.00 41 1005.1
20260505190140 81 216 9.0 19.0 0.00 0.00 0.00 40 1005.1
20260505185139 82 201 9.0 22.0 0.00 0.00 0.00 38 1005.3
20260505184140 82 193 8.0 24.0 0.00 0.00 0.00 40 1005.7
20260505183139 82 247 9.0 20.0 0.00 0.00 0.00 40 1005.7
20260505182136 82 191 9.0 25.0 0.00 0.00 0.00 39 1006.0
20260505181136 81 222 8.0 23.0 0.00 0.00 0.00 42 1006.3
20260505180137 82 194 6.0 15.0 0.00 0.00 0.00 40 1006.3